Regional Weather Roundup
Issued by NWS Kansas City/Pleasant Hill, MO

Home | Current Version | Previous Version | Graphics & Text | Print | Product List | Glossary Off
Versions: 1 2 3 4 5 6 7 8 9 10 11 12 13 14 15 16 17 18 19 20 21 22 23 24 25 26 27 28 29 30 31 32 33 34 35 36 37 38 39 40 41 42 43 44 45 46 47 48 49 50

000
ASUS43 KEAX 210511
RWREAX

WEATHER ROUNDUP FOR EASTERN KANSAS AND NORTHWEST MISSOURI
NATIONAL WEATHER SERVICE KANSAS CITY/PLEASANT HILL MO
1100 PM CST SAT DEC 20 2014

KSZ040-057-103>105-MOZ028-029-037-043-210600-
...KANSAS CITY METROPOLITAN AREA...

CITY           SKY/WX    TMP DP  RH WIND       PRES   REMARKS
K.C. INTL      MOCLDY    36  33  89 S14       30.12S WCI  27
K.C. DOWNTOWN  PTCLDY    39  33  79 S10       30.13F WCI  32
LEES SUMMIT    PTCLDY    37  32  82 S12       30.14S WCI  29
OLATHE - IXD   PTCLDY    34  32  92 S8        30.13S WCI  27
OLATHE - OJC   PTCLDY    36  33  89 S8        30.12S WCI  30
LAWRENCE       PTCLDY    36  32  85 S8        30.13S WCI  30

$$

MOZ001>008-011>017-020>025-030>033-038>040-044>046-053-054-210600-
...NORTHERN AND CENTRAL MISSOURI...

CITY           SKY/WX    TMP DP  RH WIND       PRES   REMARKS
ST. JOSEPH     PTCLDY    36  33  89 S9        30.11S WCI  29
MOSBY            N/A     36  32  87 SE5       30.14S WCI  32
WARRENSBURG    CLOUDY    34  32  93 SE6       30.17S WCI  29
WHITEMAN AFB   CLOUDY    39  36  86 S8        30.17S WCI  34
CLINTON        CLOUDY    43  36  75 S5        30.19S
SEDALIA        CLOUDY    41  35  79 S9        30.19S
WARSAW         NOT AVBL
MARSHALL       CLOUDY    41  37  87 SE7       30.19S
CHILLICOTHE      N/A     40  35  83 S8        30.15F WCI  34
MOBERLY        CLOUDY    39  34  81 S5        30.19S
KIRKSVILLE     CLOUDY    38  36  92 S12       30.16F WCI  30

$$

MOZ041-047>049-056>058-063>065-088>090-097-210600-
...EASTERN AND SOUTHERN MISSOURI...

CITY           SKY/WX    TMP DP  RH WIND       PRES   REMARKS
ST. LOUIS INTL CLOUDY    42  33  70 SE9       30.24S
SPIRIT OF STL  CLOUDY    41  34  76 S5        30.23S
COLUMBIA       CLOUDY    40  35  83 S10       30.20S WCI  33
JEFFERSON CITY CLOUDY    42  34  73 S6        30.22S
MEXICO         CLOUDY    41  41 100 S7        30.19F
HANNIBAL       CLOUDY    39  34  81 SE3       30.20S
ROLLA          CLOUDY    39  34  82 SW6       30.19S WCI  35
LEBANON        MOCLDY    41  36  81 S3        30.19F
OSAGE BEACH    CLOUDY    43  34  70 S3        30.20S
SPRINGFIELD    CLOUDY    41  38  89 S8        30.18S
BRANSON        CLOUDY    39  39 100 CALM      30.21S
NEVADA         CLOUDY    41  36  81 SW8       30.19S
JOPLIN         CLOUDY    43  35  73 S7        30.18S
WEST PLAINS    CLOUDY    40  36  86 SE7       30.22S

$$

IAZ060-094-KSZ022-034>040-054-083-096-NEZ052-066-093-210600-
...KANSAS...SOUTHEAST NEBRASKA AND IOWA...

CITY           SKY/WX    TMP DP  RH WIND       PRES   REMARKS
TOPEKA         PTCLDY   N/A N/A N/A SE7       30.10F
MANHATTAN      PTCLDY    36  34  92 SW3       30.05F
EMPORIA        CLOUDY    34  33  96 S10       30.09S WCI  26
CHANUTE        MOCLDY    35  33  92 S8        30.15F WCI  29
WICHITA        CLOUDY    43  37  79 S12       30.08S
OMAHA          FOG       34  34 100 SE10      30.04S VSB 1   WCI  26
LINCOLN        CLOUDY    36  35  96 S6        30.01F FOG     WCI  31
FALLS CITY     PTCLDY    35  33  92 S8        30.05F WCI  29
LAMONI         CLOUDY    37  36  96 S12G18    30.09F FOG     WCI  29
DES MOINES     CLOUDY    36  34  92 SE9       30.09F FOG     WCI  29

$$




USA.gov is the U.S. government's official web portal to all federal, state and local government web resources and services.